Change the Weather History Date:

Monday, December 9, 2013

  Actual Average Record
Temperature  
Mean Temperature 57 °F 48 °F  
Max Temperature 71 °F 59 °F 80 °F (1951)
Min Temperature 42 °F 37 °F 17 °F (2006)
Degree Days  
Heating Degree Days 8 17  
Month to date heating degree days 91 142  
Since 1 July heating degree days 514 569  
Cooling Degree Days 0 0  
Month to date cooling degree days 12 0  
Year to date cooling degree days 2018 1900  
Growing Degree Days 6 (Base 50)    
Moisture  
Dew Point 53 °F    
Average Humidity 90    
Maximum Humidity 100    
Minimum Humidity 79    
Precipitation  
Precipitation 0.01 in 0.11 in 1.67 in (1989)
Month to date precipitation 0.55 1.00  
Year to date precipitation 40.83 50.35  
Snow  
Snow 0.00 in - - ()
Month to date snowfall 0.0  
Since 1 July snowfall T  
Snow Depth 0.00 in    
Sea Level Pressure  
Sea Level Pressure 30.16 in    
Wind  
Wind Speed 3 mph (West)    
Max Wind Speed 12 mph    
Max Gust Speed 16 mph    
Visibility 5 miles    
Events Fog , Rain    
T = Trace of Precipitation, MM = Missing Value Source: NWS Daily Summary

Daily Weather History Graph

Daily Weather History Graph

Search for Another Location

Airport or City:

Trip Planner

Search our weather history database for the weather conditions in past years. The results will help you decide how hot, cold, wet, or windy it might be!

Date:

Astronomy

Dec. 09, 2013 Rise Set
Actual Time 7:04 AM EST 4:56 PM EST
Civil Twilight 6:36 AM EST 5:24 PM EST
Nautical Twilight 6:05 AM EST 5:56 PM EST
Astronomical Twilight 5:34 AM EST 6:26 PM EST
Moon 12:10 PM EST (12/9) No Moon Set
Length of Visible Light 10h 47m
Length of Day
9h 51m
Waxing Crescent, 51% of the Moon is Illuminated
Dec 9
Waxing Crescent
Dec 17
Full
Dec 25
Last Quarter
Jan 1
New
Jan 7
First Quarter

Hourly Weather History & Observations

Time (EST) Temp. Windchill Dew Point Humidity Pressure Visibility Wind Dir Wind Speed Gust Speed Precip Events Conditions
12:12 AM 42.8 °F 40.1 °F 41.0 °F 93% 30.27 in 2.5 mi NNW 4.6 mph - N/A   Overcast
12:31 AM 42.8 °F 40.1 °F 41.0 °F 93% 30.27 in 3.0 mi NW 4.6 mph - N/A   Overcast
12:54 AM 42.1 °F 40.2 °F 41.0 °F 96% 30.26 in 4.0 mi NW 3.5 mph - N/A   Overcast
1:54 AM 43.0 °F 41.3 °F 39.9 °F 89% 30.27 in 5.0 mi WNW 3.5 mph - 0.01 in Rain Light Rain
2:54 AM 42.1 °F 40.2 °F 39.9 °F 92% 30.25 in 5.0 mi WNW 3.5 mph - 0.00 in   Overcast
3:54 AM 43.0 °F - 41.0 °F 93% 30.23 in 5.0 mi Calm Calm - N/A   Overcast
4:54 AM 43.0 °F - 41.0 °F 93% 30.22 in 7.0 mi Calm Calm - N/A   Overcast
5:54 AM 43.0 °F 40.3 °F 41.0 °F 93% 30.23 in 7.0 mi NW 4.6 mph - N/A   Overcast
6:05 AM 42.8 °F 40.1 °F 41.0 °F 93% 30.23 in 1.8 mi NW 4.6 mph - N/A   Overcast
6:17 AM 42.8 °F 41.1 °F 41.0 °F 93% 30.23 in 1.0 mi NNW 3.5 mph - N/A   Overcast
6:31 AM 42.8 °F - 41.0 °F 93% 30.22 in 0.8 mi Calm Calm - N/A   Mist
6:38 AM 42.8 °F - 42.8 °F 100% 30.22 in 1.2 mi Calm Calm - N/A   Overcast
6:54 AM 43.0 °F - 42.1 °F 97% 30.21 in 1.8 mi Calm Calm - N/A   Overcast
7:12 AM 42.8 °F - 41.0 °F 93% 30.22 in 0.5 mi Calm Calm - N/A Fog Fog
7:54 AM 44.1 °F - 43.0 °F 96% 30.21 in 0.2 mi Calm Calm - N/A Fog Fog
8:13 AM 44.6 °F - 42.8 °F 93% 30.21 in 1.0 mi Calm Calm - N/A   Overcast
8:25 AM 44.6 °F - 44.6 °F 100% 30.22 in 0.5 mi Calm Calm - N/A Fog Fog
8:54 AM 46.0 °F 44.8 °F 44.1 °F 93% 30.22 in 0.2 mi SSW 3.5 mph - N/A Fog Fog
9:54 AM 50.0 °F - 48.0 °F 93% 30.21 in 0.5 mi Calm Calm - N/A Fog Fog
9:58 AM 50.0 °F - 48.2 °F 94% 30.21 in 1.0 mi Calm Calm - N/A   Overcast
10:06 AM 50.0 °F - 48.2 °F 94% 30.21 in 0.5 mi Variable 4.6 mph - N/A Fog Fog
10:51 AM 51.8 °F - 51.8 °F 100% 30.19 in 1.0 mi Calm Calm - N/A   Overcast
10:54 AM 53.1 °F - 51.1 °F 93% 30.19 in 1.0 mi West 3.5 mph - N/A   Overcast
11:01 AM 51.8 °F - 51.8 °F 100% 30.19 in 2.0 mi NW 4.6 mph - N/A   Overcast
11:36 AM 53.6 °F - 51.8 °F 94% 30.17 in 4.0 mi Calm Calm - N/A   Overcast
11:54 AM 54.0 °F - 52.0 °F 93% 30.17 in 4.0 mi Calm Calm - N/A   Overcast
12:54 PM 59.0 °F - 55.9 °F 90% 30.13 in 10.0 mi South 4.6 mph - N/A   Overcast
1:40 PM 64.4 °F - 60.8 °F 88% 30.11 in 10.0 mi SSW 6.9 mph - N/A   Overcast
1:54 PM 66.9 °F - 62.1 °F 84% 30.10 in 10.0 mi South 5.8 mph - N/A   Overcast
2:04 PM 68.0 °F - 62.6 °F 83% 30.10 in 10.0 mi SSW 5.8 mph - N/A   Mostly Cloudy
2:54 PM 71.1 °F - 64.0 °F 78% 30.09 in 10.0 mi SW 8.1 mph - N/A   Overcast
3:54 PM 70.0 °F - 64.0 °F 81% 30.09 in 10.0 mi WSW 5.8 mph - N/A   Overcast
4:44 PM 68.0 °F - 62.6 °F 83% 30.10 in 10.0 mi WNW 4.6 mph - N/A   Overcast
4:54 PM 68.0 °F - 63.0 °F 84% 30.10 in 10.0 mi WNW 3.5 mph - N/A   Overcast
5:54 PM 63.0 °F - 60.1 °F 90% 30.10 in 10.0 mi Calm Calm - N/A   Scattered Clouds
6:54 PM 61.0 °F - 59.0 °F 93% 30.12 in 9.0 mi Calm Calm - N/A   Overcast
7:05 PM 60.8 °F - 59.0 °F 94% 30.12 in 8.0 mi NW 3.5 mph - N/A   Overcast
7:13 PM 62.6 °F - 59.0 °F 88% 30.12 in 4.0 mi West 3.5 mph - N/A   Overcast
7:19 PM 62.6 °F - 60.8 °F 94% 30.12 in 1.8 mi West 3.5 mph - N/A   Overcast
7:33 PM 62.6 °F - 60.8 °F 94% 30.12 in 0.8 mi WNW 4.6 mph - N/A   Mist
7:45 PM 62.6 °F - 60.8 °F 94% 30.13 in 1.5 mi WNW 9.2 mph - N/A   Overcast
7:54 PM 62.1 °F - 60.1 °F 93% 30.13 in 2.5 mi West 9.2 mph - N/A   Overcast
8:01 PM 62.6 °F - 60.8 °F 94% 30.13 in 4.0 mi WNW 5.8 mph - N/A   Overcast
8:19 PM 60.8 °F - 60.8 °F 100% 30.13 in 2.0 mi West 3.5 mph - N/A   Overcast
8:41 PM 60.8 °F - 59.0 °F 94% 30.13 in 3.0 mi West 5.8 mph - N/A   Overcast
8:54 PM 61.0 °F - 60.1 °F 97% 30.13 in 3.0 mi West 3.5 mph - N/A   Overcast
9:07 PM 60.8 °F - 59.0 °F 94% 30.13 in 6.0 mi WSW 4.6 mph - N/A   Overcast
9:19 PM 60.8 °F - 59.0 °F 94% 30.12 in 10.0 mi SW 3.5 mph - N/A   Overcast
9:34 PM 60.8 °F - 59.0 °F 94% 30.12 in 10.0 mi Calm Calm - N/A   Overcast
9:52 PM 60.8 °F - 59.0 °F 94% 30.11 in 10.0 mi West 3.5 mph - N/A   Overcast
9:54 PM 61.0 °F - 59.0 °F 93% 30.11 in 10.0 mi West 4.6 mph - N/A   Overcast
10:03 PM 60.8 °F - 57.2 °F 88% 30.11 in 10.0 mi West 3.5 mph - N/A   Overcast
10:24 PM 60.8 °F - 57.2 °F 88% 30.11 in 10.0 mi WSW 3.5 mph - N/A   Overcast
10:54 PM 61.0 °F - 59.0 °F 93% 30.10 in 9.0 mi West 4.6 mph - N/A   Overcast
11:54 PM 60.1 °F - 57.9 °F 93% 30.10 in 7.0 mi Calm Calm - N/A   Overcast